Jefferson, NC

2:58 AM EDT on October 15, 2019 (GMT -0400)
Ashe County

Weather History for KGEV - August, 2019

Change the Weather History Date:

Thursday, August 22, 2019

  Actual Average Record
Temperature  
Mean Temperature 74 °F -  
Max Temperature 81 °F 78 °F 94 °F (1983)
Min Temperature 66 °F 56 °F 44 °F (1982)
Cooling Degree Days 8    
Growing Degree Days 24 (Base 50)    
Moisture  
Dew Point 65 °F    
Average Humidity 78    
Maximum Humidity 95    
Minimum Humidity 55    
Precipitation  
Precipitation 0.00 in - - ()
Sea Level Pressure  
Sea Level Pressure 30.16 in    
Wind  
Wind Speed 6 mph ()    
Max Wind Speed 29 mph    
Max Gust Speed 37 mph    
Visibility 10.0 miles    
Events Rain , Thunderstorm    
Averages and records for this station are not official NWS values.
T = Trace of Precipitation, MM = Missing Value Source: Averaged Metar Reports

Daily Weather History Graph

Daily Weather History Graph

Search for Another Location

Airport or City:

Astronomy

Aug. 22, 2019 Rise Set
Actual Time 6:48 AM EDT 8:07 PM EDT
Civil Twilight 6:21 AM EDT 8:34 PM EDT
Nautical Twilight 5:49 AM EDT 9:06 PM EDT
Astronomical Twilight 5:16 AM EDT 9:40 PM EDT
Moon No Moon Rise 1:11 PM EDT (8/22)
Length of Visible Light 14h 12m
Length of Day
13h 18m
Waning Gibbous, 60% of the Moon is Illuminated
Aug 22
Waning Gibbous
Aug 23
Last Quarter
Aug 30
New
Sep 5
First Quarter
Sep 14
Full

Hourly Weather History & Observations

Time (EDT) Temp. Heat Index Dew Point Humidity Pressure Visibility Wind Dir Wind Speed Gust Speed Precip Events Conditions
12:15 AM 72.9 °F - 65.1 °F 77% 30.18 in 10.0 mi West 5.8 mph - N/A   Clear
12:35 AM 73.4 °F - 65.3 °F 76% 30.18 in 10.0 mi West 6.9 mph - N/A   Clear
12:55 AM 72.9 °F - 65.3 °F 77% 30.18 in 10.0 mi West 4.6 mph - N/A   Clear
1:15 AM 72.7 °F - 65.3 °F 78% 30.18 in 10.0 mi West 6.9 mph - N/A   Clear
1:35 AM 72.9 °F - 65.3 °F 77% 30.18 in 10.0 mi West 5.8 mph - N/A   Scattered Clouds
1:55 AM 70.0 °F - 65.8 °F 87% 30.17 in 10.0 mi West 4.6 mph - N/A Rain Light Rain
2:15 AM 70.0 °F - 66.2 °F 88% 30.15 in 10.0 mi West 6.9 mph - N/A   Overcast
2:35 AM 70.9 °F - 65.7 °F 83% 30.15 in 10.0 mi West 6.9 mph - N/A   Scattered Clouds
2:55 AM 70.2 °F - 65.5 °F 85% 30.14 in 10.0 mi West 8.1 mph - N/A   Clear
3:15 AM 70.7 °F - 65.5 °F 83% 30.13 in 10.0 mi West 6.9 mph - N/A   Scattered Clouds
3:35 AM 70.0 °F - 65.7 °F 86% 30.13 in 10.0 mi West 5.8 mph - N/A   Clear
3:55 AM 69.8 °F - 65.7 °F 87% 30.13 in 10.0 mi Calm Calm - N/A   Clear
4:15 AM 67.3 °F - 65.3 °F 93% 30.13 in 10.0 mi Calm Calm - N/A   Clear
4:35 AM 69.3 °F - 65.5 °F 88% 30.13 in 10.0 mi Calm Calm - N/A   Clear
4:55 AM 68.4 °F - 65.5 °F 90% 30.14 in 10.0 mi Calm Calm - N/A   Clear
5:15 AM 69.4 °F - 65.5 °F 87% 30.14 in 10.0 mi West 4.6 mph - N/A   Clear
5:35 AM 70.7 °F - 65.7 °F 84% 30.14 in 10.0 mi West 8.1 mph - N/A   Clear
5:55 AM 70.7 °F - 65.7 °F 84% 30.15 in 10.0 mi West 4.6 mph - N/A   Clear
6:15 AM 71.2 °F - 65.8 °F 83% 30.16 in 10.0 mi West 11.5 mph 16.1 mph N/A   Clear
6:35 AM 71.2 °F - 66.2 °F 84% 30.16 in 10.0 mi West 12.7 mph 18.4 mph N/A   Clear
6:55 AM 71.4 °F - 66.0 °F 83% 30.17 in 10.0 mi WNW 12.7 mph 21.9 mph N/A   Clear
7:15 AM 71.4 °F - 66.2 °F 84% 30.17 in 10.0 mi WNW 11.5 mph 21.9 mph N/A   Clear
7:35 AM 71.6 °F - 66.2 °F 83% 30.17 in 10.0 mi WNW 11.5 mph - N/A   Clear
7:55 AM 71.6 °F - 66.2 °F 83% 30.17 in 10.0 mi WNW 10.4 mph - N/A   Clear
8:15 AM 72.3 °F - 66.4 °F 82% 30.17 in 10.0 mi WNW 6.9 mph - N/A   Clear
8:55 AM 73.6 °F - 66.4 °F 78% 30.18 in 10.0 mi West 8.1 mph 16.1 mph N/A   Scattered Clouds
9:15 AM 74.3 °F - 66.7 °F 77% 30.18 in 10.0 mi WNW 6.9 mph 17.3 mph N/A   Scattered Clouds
9:35 AM 74.8 °F - 66.7 °F 76% 30.18 in 10.0 mi WNW 8.1 mph - N/A   Mostly Cloudy
9:55 AM 74.8 °F - 66.6 °F 75% 30.19 in 10.0 mi WNW 9.2 mph - N/A   Mostly Cloudy
10:15 AM 75.9 °F - 66.6 °F 73% 30.19 in 10.0 mi West 9.2 mph - N/A   Mostly Cloudy
10:35 AM 75.7 °F - 65.8 °F 71% 30.19 in 10.0 mi West 4.6 mph - N/A   Scattered Clouds
10:55 AM 76.8 °F - 65.5 °F 68% 30.19 in 10.0 mi WSW 11.5 mph 16.1 mph N/A   Scattered Clouds
11:15 AM 77.2 °F - 65.5 °F 67% 30.19 in 10.0 mi WNW 10.4 mph 18.4 mph N/A   Scattered Clouds
11:35 AM 78.3 °F - 65.3 °F 64% 30.19 in 10.0 mi West 9.2 mph 17.3 mph N/A   Clear
11:55 AM 78.6 °F - 65.7 °F 64% 30.19 in 10.0 mi West 9.2 mph 16.1 mph N/A   Scattered Clouds
12:15 PM 78.8 °F - 65.1 °F 63% 30.18 in 10.0 mi West 9.2 mph - N/A   Scattered Clouds
12:35 PM 79.3 °F - 64.2 °F 60% 30.17 in 10.0 mi West 11.5 mph - N/A Thunderstorm Scattered Clouds
12:55 PM 79.5 °F - 64.2 °F 59% 30.17 in 10.0 mi WNW 12.7 mph 16.1 mph N/A Thunderstorm Scattered Clouds
1:15 PM 80.6 °F 82.2 °F 64.2 °F 57% 30.17 in 10.0 mi West 9.2 mph - N/A   Scattered Clouds
1:35 PM 81.3 °F 82.7 °F 63.5 °F 55% 30.16 in 10.0 mi West 6.9 mph - N/A   Clear
1:55 PM 78.6 °F - 61.7 °F 56% 30.16 in 10.0 mi West 28.8 mph 36.8 mph N/A Thunderstorm Mostly Cloudy
2:15 PM 74.7 °F - 61.9 °F 64% 30.16 in 10.0 mi West 20.7 mph 33.4 mph N/A Thunderstorm Overcast
2:35 PM 70.9 °F - 61.7 °F 73% 30.19 in 10.0 mi West 11.5 mph 20.7 mph N/A Thunderstorm Overcast
2:55 PM 69.1 °F - 62.8 °F 80% 30.17 in 10.0 mi West 4.6 mph - N/A Rain Light Rain
3:15 PM 71.2 °F - 62.8 °F 75% 30.16 in 10.0 mi West 6.9 mph - N/A   Scattered Clouds
3:35 PM 71.6 °F - 62.8 °F 74% 30.15 in 10.0 mi West 10.4 mph 16.1 mph N/A Rain Light Rain
3:55 PM 71.8 °F - 62.4 °F 72% 30.14 in 10.0 mi West 8.1 mph - N/A   Scattered Clouds
4:15 PM 72.5 °F - 62.2 °F 70% 30.13 in 10.0 mi West 8.1 mph - N/A   Clear
4:35 PM 72.1 °F - 62.4 °F 71% 30.13 in 10.0 mi West 6.9 mph - N/A   Clear
4:55 PM 71.8 °F - 61.5 °F 70% 30.12 in 10.0 mi West 8.1 mph - N/A   Clear
5:15 PM 72.0 °F - 61.9 °F 70% 30.13 in 10.0 mi West 8.1 mph - N/A   Clear
5:35 PM 71.6 °F - 63.0 °F 74% 30.13 in 10.0 mi West 5.8 mph - N/A   Clear
5:55 PM 71.8 °F - 63.7 °F 76% 30.13 in 10.0 mi Calm Calm - N/A   Clear
6:15 PM 72.5 °F - 63.9 °F 74% 30.13 in 10.0 mi West 3.5 mph - N/A   Clear
6:35 PM 73.6 °F - 64.2 °F 72% 30.13 in 10.0 mi West 3.5 mph - N/A   Clear
6:55 PM 74.8 °F - 64.6 °F 70% 30.13 in 10.0 mi West 5.8 mph - N/A   Clear
7:15 PM 74.5 °F - 64.8 °F 72% 30.13 in 10.0 mi West 5.8 mph - N/A   Clear
7:35 PM 74.3 °F - 65.3 °F 73% 30.12 in 10.0 mi West 5.8 mph - N/A   Clear
7:55 PM 72.9 °F - 65.1 °F 77% 30.13 in 10.0 mi West 4.6 mph - N/A   Clear
8:15 PM 72.5 °F - 64.8 °F 77% 30.13 in 10.0 mi West 5.8 mph - N/A   Clear
8:35 PM 72.7 °F - 64.9 °F 77% 30.14 in 10.0 mi West 3.5 mph - N/A   Clear
8:55 PM 72.0 °F - 65.3 °F 79% 30.14 in 10.0 mi West 3.5 mph - N/A   Clear
9:15 PM 71.2 °F - 65.1 °F 81% 30.14 in 10.0 mi Calm Calm - N/A   Clear
9:35 PM 67.3 °F - 64.6 °F 91% 30.15 in 10.0 mi Calm Calm - N/A   Clear
9:55 PM 67.1 °F - 65.5 °F 95% 30.15 in 10.0 mi Calm Calm - N/A   Clear
10:15 PM 67.1 °F - 65.3 °F 94% 30.15 in 10.0 mi Calm Calm - N/A   Clear
10:35 PM 68.2 °F - 65.1 °F 90% 30.15 in 10.0 mi Calm Calm - N/A   Scattered Clouds
10:55 PM 67.1 °F - 64.8 °F 92% 30.15 in 10.0 mi Calm Calm - N/A   Scattered Clouds
11:15 PM 68.2 °F - 65.3 °F 90% 30.16 in 10.0 mi Calm Calm - N/A   Scattered Clouds
11:35 PM 66.4 °F - 64.8 °F 95% 30.16 in 10.0 mi West 3.5 mph - N/A   Mostly Cloudy
11:55 PM 66.7 °F - 64.6 °F 93% 30.16 in 10.0 mi West 3.5 mph - N/A   Overcast